Back to catalog

CZ-6A DEB

AliveSSO
NORAD 54339·DEBRIS·🇨🇳 China

Launched Nov 11, 2022 from Taiyuan Satellite Launch Center

Loading…

Next Passes (next 24 hours)

TLE

FreshSource: Space-Track

Epoch: Sep 14, 2026, 18:30 UTC

1 54339U 22151CJ  26257.77104284  .00000173  00000-0  11888-3 0  9990
2 54339  98.8382 257.0631 0043532  86.2889 274.3259 14.11226101197217

Track CZ-6A DEB in real time with AllMySat

Download on the App Store